Tracking 18980 objects as of 20-Feb-2018
HD Live streaming from Space Station
objects crossing your sky now

COSMOS 1013

Track COSMOS 1013 now!
10-day predictions
COSMOS 1013 is classified as:


NORAD ID: 10930
Int'l Code: 1978-056A
Perigee: 1,485.1 km
Apogee: 1,561.3 km
Inclination: 74.0 °
Period: 116.3 minutes
Semi major axis: 7894 km
RCS: 0.7053 m2 (medium)
Launch date: June 7, 1978
Source: Commonwealth of Independent States (former USSR) (CIS)
Launch site: PLESETSK MISSILE AND SPACE COMPLEX (PKMTR)
aabbcc
Your satellite tracking list
Your tracking list is empty




NASA's NSSDC Master Catalog

Two Line Element Set (TLE):
1 10930U 78056A   18050.62875069 +.00000005 +00000-0 +15563-3 0  9994
2 10930 074.0264 118.9007 0048288 189.4517 281.7184 12.37778027794048
Source of the keplerian elements: AFSPC